This is the latest recevied weather packets stored in our database for station/object KD0ISH. If no packets are shown the sender has not sent any weather packets the latest 10 day(s).
| Time | Temp. | Humidity | Pressure | Rain* | Wind** | Luminosity | Snow |
|---|---|---|---|---|---|---|---|
| 1777779809 | 7.22° C | 89% | 1021.2 hPa | 0 mm | - | 0 W/m² | - |
| 1777779506 | 7.78° C | 88% | 1021.2 hPa | 0 mm | - | 0 W/m² | - |
| 1777779203 | 7.78° C | 88% | 1021 hPa | 0 mm | - | 0 W/m² | - |
| 1777778901 | 7.78° C | 88% | 1021.1 hPa | 0 mm | - | 0 W/m² | - |
| 1777778600 | 7.78° C | 87% | 1020.9 hPa | 0 mm | - | 0 W/m² | - |
| 1777778297 | 7.78° C | 87% | 1021 hPa | 0 mm | - | 0 W/m² | - |
| 1777777995 | 7.78° C | 86% | 1021.2 hPa | 0 mm | - | 0 W/m² | - |
| 1777777691 | 8.33° C | 85% | 1021.1 hPa | 0 mm | - | 0 W/m² | - |
| 1777777388 | 8.33° C | 85% | 1020.9 hPa | 0 mm | - | 0 W/m² | - |
| 1777777084 | 8.33° C | 85% | 1021 hPa | 0 mm | - | 0 W/m² | - |
| 1777776782 | 8.33° C | 85% | 1020.8 hPa | 0 mm | - | 0 W/m² | - |
| 1777776478 | 8.33° C | 84% | 1020.8 hPa | 0 mm | - | 0 W/m² | - |
| 1777776175 | 8.89° C | 83% | 1020.9 hPa | 0 mm | - | 0 W/m² | - |
| 1777775872 | 8.89° C | 83% | 1021 hPa | 0 mm | - | 0 W/m² | - |
| 1777775569 | 8.89° C | 82% | 1020.9 hPa | 0 mm | - | 0 W/m² | - |
| 1777775265 | 9.44° C | 82% | 1020.9 hPa | 0 mm | - | 0 W/m² | - |
| 1777774960 | 9.44° C | 81% | 1020.7 hPa | 0 mm | - | 0 W/m² | - |
| 1777774657 | 9.44° C | 80% | 1020.6 hPa | 0 mm | - | 0 W/m² | - |
| 1777774353 | 10° C | 78% | 1020.8 hPa | 0 mm | - | 0 W/m² | - |
| 1777774051 | 10° C | 77% | 1020.5 hPa | 0 mm | - | 0 W/m² | - |
| 1777773748 | 10° C | 72% | 1020.7 hPa | 0 mm | - | 0 W/m² | - |
| 1777773445 | 10° C | 74% | 1020.7 hPa | 0 mm | - | 0 W/m² | - |
| 1777773142 | 10° C | 70% | 1020.7 hPa | 0 mm | - | 0 W/m² | - |
| 1777772837 | 10.56° C | 68% | 1020.6 hPa | 0 mm | - | 0 W/m² | - |
| 1777772536 | 10.56° C | 65% | 1020.6 hPa | 0 mm | - | 0 W/m² | - |
* Rain latest hour (hover to see other rain measurements)
** Current wind speed in m/s (hover to see current wind gust speed)